Weather History for Crosby, ND

Change the Weather History Date:

Monday, February 11, 2013

  Actual Average (KISN) Record (KISN)
Temperature  
Mean Temperature 18 °F 16 °F  
Max Temperature 21 °F 26 °F 51 °F (1990)
Min Temperature 14 °F 5 °F -39 °F (1899)
Degree Days  
Heating Degree Days 48 49  
Month to date heating degree days 559  
Since 1 July heating degree days 5980  
Cooling Degree Days 0 0  
Month to date cooling degree days 0  
Year to date cooling degree days 0  
Moisture  
Dew Point 14 °F    
Average Humidity 84    
Maximum Humidity 93    
Minimum Humidity 74    
Precipitation  
Precipitation 0.13 in 0.01 in 0.24 in (1979)
Month to date precipitation 0.13  
Year to date precipitation 0.72  
Sea Level Pressure  
Sea Level Pressure 29.92 in    
Wind  
Wind Speed 14 mph (West)    
Max Wind Speed 22 mph    
Max Gust Speed 29 mph    
Visibility 10 miles    
Events Snow    
T = Trace of Precipitation, MM = Missing Value Source: NWS Daily Summary

Daily Weather History Graph

Daily Weather History Graph

Search for Another Location

Airport:

Trip Planner

Search our weather history database for the weather conditions in past years. The results will help you decide how hot, cold, wet, or windy it might be!

Date:

Astronomy

Feb. 11, 2013 Rise Set
Actual Time 8:07 AM CST 6:07 PM CST
Civil Twilight 7:34 AM CST 6:40 PM CST
Nautical Twilight 6:57 AM CST 7:18 PM CST
Astronomical Twilight 6:21 AM CST 7:54 PM CST
Moon 8:20 AM CST (2/11) 8:22 PM CST (2/11)
Length of Visible Light 11h 06m
Length of Day
10h 00m
Waxing Crescent, 3% of the Moon is Illuminated
Feb 11
Waxing Crescent
Feb 17
First Quarter
Feb 25
Full
Mar 4
Last Quarter
Mar 11
New

Hourly Weather History & Observations

Time (CST) Temp. Windchill Dew Point Humidity Pressure Visibility Wind Dir Wind Speed Gust Speed Precip Events Conditions
12:15 AM 17.6 °F 3.7 °F 14.0 °F 86% 30.03 in 10.0 mi North 13.8 mph - N/A   Overcast
12:35 AM 17.6 °F 4.3 °F 14.0 °F 86% 30.03 in 10.0 mi North 12.7 mph - N/A   Overcast
12:55 AM 17.6 °F 3.7 °F 14.0 °F 86% 30.03 in 10.0 mi NNW 13.8 mph - N/A   Overcast
1:15 AM 17.6 °F 5.7 °F 14.0 °F 86% 30.04 in 10.0 mi NNW 10.4 mph - N/A   Overcast
1:35 AM 17.6 °F 5.0 °F 14.0 °F 86% 30.04 in 10.0 mi NNW 11.5 mph - N/A   Overcast
1:55 AM 17.6 °F 3.2 °F 14.0 °F 86% 30.04 in 10.0 mi NW 15.0 mph - N/A   Overcast
2:15 AM 15.8 °F 2.1 °F 14.0 °F 93% 30.04 in 10.0 mi NNW 12.7 mph - N/A   Overcast
2:35 AM 15.8 °F 2.1 °F 14.0 °F 93% 30.04 in 10.0 mi NW 12.7 mph - N/A   Overcast
2:55 AM 15.8 °F 1.4 °F 14.0 °F 93% 30.04 in 10.0 mi NW 13.8 mph - N/A   Overcast
3:15 AM 15.8 °F 0.3 °F 12.2 °F 86% 30.04 in 10.0 mi NW 16.1 mph - N/A Snow Light Snow
3:35 AM 15.8 °F 1.4 °F 12.2 °F 86% 30.04 in 8.0 mi NW 13.8 mph - N/A Snow Light Snow
3:55 AM 15.8 °F 1.4 °F 12.2 °F 86% 30.04 in 10.0 mi NW 13.8 mph - 0.02 in Snow Light Snow
4:15 AM 15.8 °F 2.1 °F 12.2 °F 86% 30.03 in 10.0 mi NW 12.7 mph - N/A Snow Light Snow
4:35 AM 15.8 °F 2.1 °F 12.2 °F 86% 30.03 in 10.0 mi WNW 12.7 mph - 0.01 in Snow Light Snow
4:55 AM 15.8 °F 0.3 °F 12.2 °F 86% 30.03 in 10.0 mi WNW 16.1 mph - 0.01 in Snow Light Snow
5:15 AM 15.8 °F 2.7 °F 12.2 °F 86% 30.03 in 7.0 mi NW 11.5 mph - 0.01 in Snow Light Snow
5:35 AM 15.8 °F 4.2 °F 12.2 °F 86% 30.03 in 6.0 mi WNW 9.2 mph - 0.04 in Snow Light Snow
5:55 AM 14.0 °F 2.0 °F 10.4 °F 86% 30.03 in 9.0 mi WNW 9.2 mph - 0.06 in Snow Light Snow
6:15 AM 14.0 °F 2.9 °F 10.4 °F 86% 30.02 in 10.0 mi West 8.1 mph - 0.02 in Snow Light Snow
6:35 AM 14.0 °F 1.2 °F 10.4 °F 86% 30.02 in 9.0 mi WNW 10.4 mph - 0.02 in Snow Light Snow
6:55 AM 15.8 °F 4.2 °F 10.4 °F 79% 30.02 in 10.0 mi WNW 9.2 mph - 0.03 in Snow Light Snow
7:15 AM 15.8 °F 2.1 °F 10.4 °F 79% 30.02 in 10.0 mi WNW 12.7 mph - N/A Snow Light Snow
7:35 AM 15.8 °F 2.1 °F 10.4 °F 79% 30.02 in 10.0 mi West 12.7 mph - N/A Snow Light Snow
7:55 AM 14.0 °F 1.2 °F 10.4 °F 86% 30.02 in 10.0 mi West 10.4 mph - 0.01 in Snow Light Snow
8:15 AM 15.8 °F 1.4 °F 12.2 °F 86% 30.01 in 10.0 mi West 13.8 mph - N/A Snow Light Snow
8:35 AM 15.8 °F 3.4 °F 12.2 °F 86% 30.00 in 10.0 mi West 10.4 mph - N/A Snow Light Snow
8:55 AM 15.8 °F 0.9 °F 12.2 °F 86% 30.00 in 10.0 mi West 15.0 mph - N/A Snow Light Snow
9:15 AM 15.8 °F 2.7 °F 12.2 °F 86% 29.99 in 7.0 mi WSW 11.5 mph - N/A Snow Light Snow
9:35 AM 15.8 °F 1.4 °F 12.2 °F 86% 29.98 in 10.0 mi WSW 13.8 mph 18.4 mph N/A   Overcast
9:55 AM 15.8 °F 0.9 °F 12.2 °F 86% 29.99 in 10.0 mi WSW 15.0 mph - N/A Snow Light Snow
10:15 AM 15.8 °F 0.3 °F 12.2 °F 86% 29.98 in 10.0 mi West 16.1 mph - N/A Snow Light Snow
10:35 AM 15.8 °F 0.9 °F 12.2 °F 86% 29.98 in 9.0 mi West 15.0 mph - N/A Snow Light Snow
10:55 AM 15.8 °F -0.2 °F 14.0 °F 93% 29.97 in 10.0 mi WSW 17.3 mph - N/A Snow Light Snow
11:15 AM 17.6 °F 2.2 °F 14.0 °F 86% 29.96 in 7.0 mi West 17.3 mph - N/A Snow Light Snow
11:35 AM 17.6 °F 2.2 °F 14.0 °F 86% 29.96 in 10.0 mi WSW 17.3 mph 20.7 mph N/A   Overcast
11:55 AM 17.6 °F 3.2 °F 14.0 °F 86% 29.95 in 10.0 mi WSW 15.0 mph - N/A   Mostly Cloudy
12:15 PM 17.6 °F 4.3 °F 14.0 °F 86% 29.93 in 10.0 mi SW 12.7 mph - N/A   Partly Cloudy
12:35 PM 19.4 °F 4.1 °F 14.0 °F 80% 29.92 in 10.0 mi SW 18.4 mph - N/A   Clear
12:55 PM 19.4 °F 5.0 °F 14.0 °F 80% 29.91 in 10.0 mi SW 16.1 mph - N/A   Clear
1:15 PM 19.4 °F 5.0 °F 15.8 °F 86% 29.90 in 10.0 mi SW 16.1 mph 23.0 mph N/A   Clear
1:35 PM 19.4 °F 5.0 °F 15.8 °F 86% 29.89 in 10.0 mi SW 16.1 mph - N/A   Clear
1:55 PM 19.4 °F 4.5 °F 15.8 °F 86% 29.88 in 10.0 mi SW 17.3 mph - N/A   Clear
2:15 PM 19.4 °F 6.6 °F 15.8 °F 86% 29.87 in 10.0 mi SW 12.7 mph - N/A   Clear
2:35 PM 21.2 °F 12.6 °F 15.8 °F 80% 29.86 in 10.0 mi SSW 6.9 mph - N/A   Clear
2:55 PM 21.2 °F 8.9 °F 15.8 °F 80% 29.84 in 10.0 mi SW 12.7 mph 17.3 mph N/A   Clear
3:15 PM 21.2 °F 6.0 °F 15.8 °F 80% 29.82 in 10.0 mi SW 19.6 mph - N/A   Clear
3:35 PM 21.2 °F 7.3 °F 15.8 °F 80% 29.82 in 10.0 mi SSW 16.1 mph 24.2 mph N/A   Clear
3:55 PM 21.2 °F 6.8 °F 15.8 °F 80% 29.82 in 10.0 mi SW 17.3 mph - N/A   Clear
4:55 PM 21.2 °F 11.7 °F 15.8 °F 80% 29.82 in 10.0 mi SSW 8.1 mph - N/A   Clear
5:15 PM 21.2 °F 7.8 °F 15.8 °F 80% 29.80 in 10.0 mi SSW 15.0 mph - N/A   Clear
5:35 PM 21.2 °F 8.9 °F 15.8 °F 80% 29.79 in 10.0 mi South 12.7 mph - N/A   Clear
5:55 PM 19.4 °F 8.6 °F 15.8 °F 86% 29.78 in 10.0 mi SSW 9.2 mph - N/A   Clear
6:15 PM 19.4 °F 5.0 °F 14.0 °F 80% 29.77 in 10.0 mi SW 16.1 mph 21.9 mph N/A   Clear
6:35 PM 19.4 °F 4.1 °F 14.0 °F 80% 29.77 in 10.0 mi SW 18.4 mph 28.8 mph N/A   Clear
6:55 PM 19.4 °F 4.1 °F 15.8 °F 86% 29.77 in 10.0 mi SW 18.4 mph 23.0 mph N/A   Clear
7:15 PM 19.4 °F 4.1 °F 15.8 °F 86% 29.78 in 10.0 mi SW 18.4 mph 25.3 mph N/A   Clear
7:35 PM 19.4 °F 3.6 °F 15.8 °F 86% 29.78 in 10.0 mi SW 19.6 mph - N/A   Clear
7:55 PM 19.4 °F 4.5 °F 14.0 °F 80% 29.78 in 10.0 mi WSW 17.3 mph 20.7 mph N/A   Clear
8:15 PM 21.2 °F 5.2 °F 14.0 °F 74% 29.77 in 10.0 mi WSW 21.9 mph - N/A   Clear
8:35 PM 21.2 °F 6.4 °F 14.0 °F 74% 29.78 in 10.0 mi WSW 18.4 mph - N/A   Clear
8:55 PM 21.2 °F 6.0 °F 14.0 °F 74% 29.77 in 10.0 mi WSW 19.6 mph - N/A   Clear
9:15 PM 19.4 °F 3.6 °F 14.0 °F 80% 29.77 in 10.0 mi WSW 19.6 mph 25.3 mph N/A   Clear
9:35 PM 19.4 °F 4.5 °F 14.0 °F 80% 29.78 in 10.0 mi West 17.3 mph - N/A   Clear
9:55 PM 19.4 °F 5.5 °F 14.0 °F 80% 29.78 in 10.0 mi West 15.0 mph - N/A   Clear
10:15 PM 19.4 °F 6.6 °F 14.0 °F 80% 29.77 in 10.0 mi West 12.7 mph - N/A   Clear
10:35 PM 19.4 °F 6.0 °F 14.0 °F 80% 29.77 in 10.0 mi West 13.8 mph - N/A   Clear
10:55 PM 19.4 °F 6.6 °F 14.0 °F 80% 29.77 in 10.0 mi West 12.7 mph - N/A   Clear
11:15 PM 19.4 °F 5.5 °F 15.8 °F 86% 29.77 in 10.0 mi West 15.0 mph - N/A   Clear
11:35 PM 21.2 °F 7.3 °F 15.8 °F 80% 29.77 in 10.0 mi West 16.1 mph - N/A   Clear
11:55 PM 19.4 °F 5.5 °F 15.8 °F 86% 29.77 in 10.0 mi West 15.0 mph - N/A   Clear